Vorticity
6 7 7 6 7 7 7 7 7 7 6 6 5 4 4 4 6 9 11 12 12 10 8 7 7 12 18 18 12 8 6 4 1 3 6 8 13 9 4 6 7 8 10 14 11 8 9 6 4 4 8 6 5 10 4 -2 -1 6 3 -5 4 2 -2 4 -0 -0 6 1 -0 8 8 7 9 5 5 7 9 11 12 12 10 8 6 7 5 4 8 8
6 6 6 6 6 6 6 6 6 6 6 6 6 6 5 5 4 4 7 9 12 12 11 10 7 7 10 17 20 14 7 6 3 1 4 7 8 7 6 8 9 9 6 10 10 6 5 6 7 3 7 9 6 6 2 1 -1 4 7 -3 2 3 2 11 6 2 14 14 3 6 9 5 6 5 5 8 6 6 11 14 12 11 8 7 5 6 9 7
6 6 6 6 6 5 5 4 4 3 4 4 5 6 6 7 6 5 4 5 8 10 12 13 11 8 6 9 17 21 15 7 5 3 2 2 4 6 6 8 10 10 5 7 9 6 3 7 11 4 4 8 7 5 2 6 0 1 8 1 3 5 8 14 7 3 12 16 10 13 15 7 8 8 6 7 6 5 7 11 10 8 8 7 7 9 11 9
6 6 7 7 7 6 6 6 6 5 5 5 5 6 6 7 8 7 6 4 5 6 9 12 13 12 9 6 7 17 22 15 8 5 3 -1 1 4 6 7 7 9 9 7 7 6 4 9 13 5 3 6 7 7 5 6 1 6 11 2 2 2 1 1 -1 -2 -2 9 16 17 14 8 12 12 8 6 6 9 9 9 8 7 7 5 6 9 11 12
5 5 6 7 7 7 7 7 8 7 7 7 7 7 6 7 7 9 8 6 5 4 6 8 11 12 12 10 5 8 17 22 16 8 6 3 1 1 3 8 5 9 12 8 7 6 4 8 11 7 4 4 8 9 6 6 3 8 10 -1 1 3 -1 -3 3 3 -5 4 13 13 8 5 11 10 13 11 3 8 14 11 6 7 8 4 7 9 10 11
5 5 5 6 6 6 6 6 6 6 7 6 6 7 7 7 7 7 9 9 7 4 4 5 7 9 11 12 9 6 9 17 21 16 10 4 3 2 -0 5 6 9 13 12 10 7 7 8 7 7 6 4 7 7 4 7 6 5 6 2 3 1 -3 -6 -1 5 1 -0 0 4 3 5 13 9 16 19 4 4 13 14 8 6 8 6 10 11 8 9
6 6 5 5 5 4 4 3 4 5 5 6 6 7 7 8 7 7 7 8 9 7 5 4 4 5 8 10 11 11 9 11 17 21 20 11 6 4 1 2 4 8 12 13 12 10 10 8 6 6 5 5 5 5 7 7 6 6 4 5 6 0 -3 -4 -4 1 3 -2 -7 -1 2 10 18 7 6 13 11 11 8 11 9 7 9 9 12 13 8 7
7 7 6 6 5 4 3 3 4 5 5 6 6 6 7 8 8 8 8 7 8 8 8 6 4 3 4 6 9 9 9 11 13 16 22 21 13 7 5 3 2 7 10 11 11 11 12 8 7 6 4 6 5 3 8 8 6 8 3 -1 4 -0 -6 -6 -7 -5 2 1 -4 -1 -1 8 18 8 1 4 12 14 7 9 10 7 11 11 13 13 10 7
6 7 7 7 6 5 4 3 4 4 4 4 4 5 5 5 7 8 9 9 8 7 8 8 6 5 3 3 5 5 7 10 12 13 16 21 19 12 9 7 4 5 7 10 9 9 15 13 4 5 4 2 4 3 5 8 3 3 3 -3 -2 -3 -7 -8 -9 -8 -4 -0 -0 -1 -5 4 17 9 3 8 11 11 8 9 10 9 10 12 12 10 9 8
7 7 7 7 7 6 5 4 4 3 3 4 4 4 4 4 4 4 6 8 10 9 7 8 8 7 5 4 3 4 6 6 8 12 13 17 21 16 11 8 8 6 4 8 9 11 20 17 4 4 6 1 3 2 3 10 5 -1 2 -2 -5 -4 -6 -8 -6 -4 -4 -1 1 -3 -5 6 15 7 5 12 9 8 10 8 11 11 8 12 13 11 9 8
8 8 7 7 6 6 6 5 4 3 3 4 4 4 4 4 3 3 5 5 7 8 9 9 8 7 6 6 4 4 7 4 4 9 10 13 17 18 14 8 8 8 6 5 7 12 17 15 3 1 6 5 3 2 5 8 2 -2 1 2 -2 -7 -7 -6 -3 3 2 2 1 -4 -1 7 9 7 6 6 2 5 9 7 11 12 7 10 13 11 8 7
11 10 9 9 8 7 7 6 5 4 4 4 5 5 5 4 3 3 4 3 3 5 7 9 9 9 6 6 7 5 5 4 3 4 6 10 13 16 16 12 7 5 6 5 6 10 14 11 2 3 9 8 4 3 5 3 -5 -4 3 10 7 -3 0 5 3 4 3 -1 0 0 3 5 4 7 6 4 7 9 9 6 8 9 7 9 12 12 8 7
10 10 10 10 10 10 9 8 8 7 7 7 6 6 5 5 4 5 5 4 4 3 4 6 8 9 7 7 9 7 5 6 5 5 5 7 9 11 14 17 13 8 5 6 6 6 8 6 5 11 9 4 7 5 4 5 -1 -3 1 8 9 1 3 14 11 9 9 -1 -1 6 7 4 1 5 7 8 11 9 8 7 6 8 9 9 10 12 9 8
7 7 8 9 9 9 9 9 9 8 9 9 9 8 6 6 7 7 6 5 5 5 4 4 4 5 4 6 11 11 9 8 4 4 5 4 6 8 10 14 17 16 10 6 6 4 4 5 10 16 8 6 10 4 3 7 3 -0 -1 3 7 -1 0 20 20 11 10 -1 -3 7 7 4 3 3 3 2 6 6 10 12 6 7 12 11 10 11 10 10
4 5 6 6 7 8 8 8 9 9 8 8 8 7 5 7 8 6 6 7 7 6 7 6 4 4 2 3 10 11 8 7 5 4 4 3 4 5 7 9 13 18 16 9 6 4 2 1 8 14 13 13 6 2 8 8 8 5 0 4 7 -1 1 24 27 10 6 -1 -0 10 6 2 4 3 -0 1 7 8 11 15 8 3 7 11 11 10 10 11
4 4 4 5 5 5 6 6 7 8 8 7 8 7 6 7 6 5 6 6 6 7 7 7 6 5 4 3 5 6 3 6 11 9 6 5 5 4 5 7 10 14 18 16 10 6 2 -0 6 11 15 14 3 5 8 4 10 12 7 8 6 -0 5 29 33 9 2 1 0 7 7 4 3 1 2 7 11 10 12 17 14 5 4 9 11 11 10 9
4 4 4 4 4 3 3 3 4 5 6 6 7 7 8 10 8 7 6 5 5 6 6 6 7 6 5 4 5 6 5 7 11 10 4 3 5 5 4 6 7 8 12 15 14 11 6 4 6 6 9 12 12 11 3 5 16 15 14 12 4 -2 3 27 27 3 2 4 -4 -1 1 -1 1 4 5 4 5 7 6 8 15 15 9 9 10 10 11 9
3 3 3 3 3 3 3 3 3 3 3 5 5 5 6 8 9 9 8 7 7 6 5 5 5 6 4 4 6 7 7 6 7 9 6 4 7 8 6 5 5 5 7 10 15 16 13 14 12 7 6 7 13 10 1 12 16 10 15 10 2 -1 3 22 17 1 5 2 -4 2 -2 -6 0 5 3 2 3 3 -3 -4 10 17 10 9 11 9 10 9
6 5 4 3 3 3 3 3 3 2 2 3 4 4 4 5 5 7 9 10 9 7 7 7 7 7 5 3 4 5 8 7 6 9 9 6 6 9 10 6 4 5 6 7 13 15 13 16 16 14 12 6 8 6 5 14 7 1 13 12 5 -1 5 20 12 -1 0 0 2 -2 -11 -7 -4 -4 -2 2 5 3 -2 -3 6 13 9 7 11 10 9 10
7 7 7 7 5 4 4 3 3 3 2 1 2 3 4 4 5 5 5 6 8 8 9 11 11 10 8 5 3 3 5 7 7 8 9 7 4 7 9 8 7 6 6 7 9 11 11 17 22 20 16 10 8 6 8 18 11 -2 6 16 13 1 5 19 14 3 -4 1 8 -3 -8 -2 -6 -8 -5 -1 1 -2 -2 1 3 9 13 9 9 12 9 10
6 6 7 8 7 7 6 4 4 4 4 3 2 2 2 3 4 5 5 4 4 5 8 10 11 12 10 5 3 5 4 6 11 9 8 8 5 6 7 6 8 6 6 7 5 6 9 17 27 26 20 14 9 7 7 16 17 3 0 13 14 4 9 18 13 5 -4 -2 5 3 4 1 -8 -10 -8 -2 -1 -6 -4 1 0 7 20 16 7 11 12 9
5 5 5 7 7 7 7 6 6 4 4 4 3 3 3 3 3 3 6 6 4 3 3 5 8 10 9 4 5 7 5 7 8 7 8 7 6 10 8 5 6 5 6 7 2 1 1 8 18 20 21 17 11 9 7 11 17 10 2 7 12 7 12 16 9 3 -1 -3 1 3 3 0 -5 -9 -6 -1 -4 -7 -3 -0 1 9 26 26 10 9 13 14
6 5 5 5 6 7 6 6 7 6 4 3 3 3 3 4 4 3 4 5 7 5 2 3 4 7 10 7 6 6 7 8 3 2 6 7 8 8 6 7 8 6 8 6 4 1 -5 -1 9 11 15 17 14 11 7 7 11 13 4 5 16 12 10 16 11 4 -1 -4 0 2 1 3 4 3 4 -1 -5 -1 2 2 5 7 17 23 17 13 9 10
7 6 4 4 5 6 7 5 6 7 6 5 5 5 4 3 3 3 3 3 6 5 5 6 2 2 7 6 4 6 9 9 6 6 6 7 9 6 6 9 7 7 10 7 8 8 -2 -1 4 5 8 12 14 13 11 8 7 10 6 7 20 15 10 17 11 2 -1 -4 -0 1 -1 0 3 9 8 1 4 8 5 4 5 5 7 10 12 18 15 10
6 6 4 4 4 6 8 5 4 6 7 6 7 8 7 5 4 3 3 4 3 1 3 7 2 -1 2 3 5 8 9 10 11 10 6 6 7 6 7 8 7 11 12 9 9 8 3 3 4 3 5 8 11 12 14 13 9 7 2 10 27 21 11 14 4 -2 -1 -3 1 3 0 -1 0 6 7 7 11 8 6 6 5 10 12 5 2 10 17 13
6 5 4 5 4 5 8 7 4 5 6 6 7 9 8 7 7 6 6 7 4 -0 3 5 5 5 3 1 3 4 6 10 10 5 4 7 5 3 4 4 8 11 10 8 9 13 11 6 4 3 4 7 8 12 17 14 13 15 9 12 26 20 10 8 -4 -8 -2 -4 -1 2 -0 -2 -1 2 4 8 6 2 8 11 14 17 9 6 5 3 14 14
7 6 5 5 4 3 7 8 6 4 5 6 6 8 8 8 9 8 8 9 4 3 6 3 3 8 5 3 5 5 6 9 8 5 8 12 9 7 5 3 7 8 8 6 5 17 20 9 5 3 4 5 4 13 20 12 14 28 21 10 20 19 8 8 0 -4 2 -2 -5 1 3 1 0 -2 1 7 3 4 14 14 19 14 -1 9 11 3 15 16
9 8 5 7 6 3 4 7 6 3 4 5 5 6 7 7 8 9 9 9 7 7 9 5 2 5 6 6 5 6 7 7 7 8 7 8 7 8 7 4 6 7 9 6 2 9 13 10 9 5 6 5 1 10 16 8 14 29 18 5 20 22 7 10 12 8 10 2 -7 -3 0 1 3 0 1 10 11 9 13 12 12 2 -6 12 12 1 14 18
12 11 8 7 9 6 4 6 6 5 5 4 5 6 5 6 6 6 7 8 7 10 12 9 5 4 7 9 6 5 7 8 7 7 7 7 8 11 12 7 5 5 5 7 9 5 2 8 11 7 9 7 1 5 9 6 13 22 13 3 18 22 12 11 10 8 7 -3 -7 -2 -2 -5 -0 5 1 7 21 17 7 4 1 -3 -2 10 11 2 7 14
13 14 11 7 9 10 6 6 6 6 8 6 4 5 5 6 6 5 7 6 5 9 13 13 9 5 5 8 9 6 7 9 8 6 5 7 7 7 11 9 5 4 1 4 11 9 2 4 6 8 13 11 6 5 5 5 8 15 12 6 10 17 17 9 4 7 -5 -17 -4 7 4 -8 -8 15 11 -5 8 11 3 2 -1 -1 1 3 8 6 5 13
13 14 15 10 8 10 9 10 6 3 8 8 5 5 5 5 6 7 7 5 6 8 9 10 10 8 5 6 8 6 4 5 7 8 7 6 4 2 5 7 6 7 5 2 8 11 4 1 3 8 13 12 9 6 5 4 5 10 14 10 7 12 16 6 4 1 -23 -20 13 20 11 -8 -19 12 21 -6 -5 4 0 2 -0 1 2 1 6 4 2 12
12 13 16 14 11 8 7 12 11 4 6 10 7 5 5 6 6 7 5 2 5 7 6 7 8 8 7 6 8 10 7 4 3 5 6 5 5 3 3 5 6 8 7 4 5 10 9 7 8 8 10 10 9 8 6 5 5 5 10 14 10 9 9 6 6 -9 -33 -13 25 26 14 -13 -35 -2 23 1 -4 1 2 6 4 1 1 3 6 2 1 10
10 10 13 16 16 10 5 10 13 9 6 10 11 6 4 7 6 6 4 2 5 7 5 5 5 6 7 6 6 8 7 7 6 3 3 3 3 3 2 1 2 2 3 3 2 5 6 6 6 5 8 10 9 10 7 6 7 4 8 14 12 10 6 8 11 -8 -21 1 23 22 13 -13 -30 -0 24 11 1 -1 2 11 11 3 1 7 7 0 0 6
9 9 9 12 14 12 7 7 11 12 8 9 13 10 7 7 5 5 5 3 6 7 5 5 5 3 5 5 5 7 6 5 7 5 4 5 4 4 3 1 1 1 3 5 4 6 3 2 6 6 8 11 11 13 11 8 7 5 10 12 11 12 8 9 12 -2 -6 10 18 15 4 -12 -17 -6 8 10 6 2 2 8 13 6 -0 5 7 -1 -3 2
9 10 9 8 10 11 9 6 7 10 10 8 10 12 12 8 5 7 6 4 6 7 5 6 7 6 6 5 4 6 6 4 5 4 3 6 5 3 3 3 5 4 3 4 3 5 3 4 11 8 5 8 9 11 12 12 9 6 10 8 6 15 15 12 14 7 2 5 13 15 2 -5 -5 -8 4 11 0 -0 3 3 11 9 -1 3 7 0 -4 1
9 10 10 9 9 9 9 8 6 7 9 8 7 10 13 9 6 8 9 6 5 5 5 5 6 8 7 7 6 6 6 4 6 4 2 4 4 3 4 3 4 3 3 2 1 2 2 3 10 10 6 6 6 8 8 8 10 10 10 5 4 14 17 13 14 15 9 -2 5 18 9 6 6 -2 11 17 2 0 2 -2 5 6 0 7 12 6 4 8
8 7 10 12 11 9 8 8 8 8 8 7 7 8 10 9 8 10 10 9 7 6 5 5 7 7 5 6 6 6 7 5 5 6 4 4 4 6 8 8 7 6 5 4 1 2 3 0 1 6 11 10 8 8 7 5 5 7 9 7 8 11 11 10 10 17 16 -2 0 17 12 10 15 7 11 18 11 7 2 -2 4 6 3 7 11 8 9 11
8 5 8 13 12 11 11 9 8 9 7 6 7 8 8 8 9 10 9 9 9 7 5 5 6 6 6 8 6 6 7 6 6 6 4 6 8 6 5 6 6 6 6 7 5 3 5 5 1 0 5 8 7 5 6 5 3 4 5 5 8 8 6 7 5 9 16 4 0 14 11 9 19 16 13 17 12 7 5 -1 -0 7 5 1 6 6 5 11
10 4 9 14 11 10 14 13 9 9 8 7 8 10 9 9 9 7 7 7 7 8 7 7 7 5 5 6 8 8 6 5 7 7 4 5 7 5 2 1 1 1 0 2 4 5 6 7 5 3 5 5 4 1 2 4 5 7 6 2 4 4 4 8 4 4 14 7 2 10 9 11 18 14 15 22 16 9 10 2 -3 6 5 -2 2 3 7 19
10 3 13 18 7 6 14 16 12 10 11 10 9 11 10 9 9 8 8 7 7 7 6 6 7 8 6 5 7 9 7 5 6 6 6 6 5 5 4 5 6 6 4 3 4 6 8 9 6 2 2 1 -0 -1 1 4 6 7 6 3 4 4 3 5 2 3 7 4 5 6 0 8 17 12 14 23 23 21 18 9 6 11 7 2 3 3 11 20
9 4 17 19 5 5 12 16 17 13 12 12 10 10 11 10 10 10 9 8 7 6 6 7 7 8 8 7 6 6 6 6 5 5 6 9 10 6 3 4 4 6 9 10 9 4 2 7 7 1 -1 1 5 6 5 6 7 8 8 6 7 8 6 2 1 5 4 -0 4 2 -5 6 16 11 11 16 19 24 24 19 14 13 10 6 6 9 16 16
15 12 21 16 5 8 12 16 21 15 13 15 12 10 11 11 12 11 10 10 8 8 8 8 7 8 9 7 6 5 4 6 7 5 5 7 6 3 4 7 5 3 4 4 5 3 -2 -2 2 2 2 4 8 10 9 8 8 7 6 6 8 8 7 4 2 5 6 4 5 2 1 12 16 12 12 14 15 17 23 25 16 13 18 12 3 5 8 4
27 25 30 23 12 13 17 22 24 19 16 16 15 14 14 13 14 14 12 11 11 11 11 9 8 7 7 8 8 6 6 8 8 7 6 6 3 3 7 8 6 7 7 4 6 6 3 5 7 5 3 2 4 7 8 7 8 6 3 3 4 3 5 5 3 2 4 5 7 7 5 6 9 10 8 7 12 15 19 26 21 15 20 15 5 4 4 0
34 33 39 39 26 18 22 28 28 25 22 20 19 19 17 16 15 15 14 14 13 13 12 10 10 9 8 8 9 8 8 8 7 6 7 6 4 6 8 7 7 8 7 6 6 3 4 11 12 5 1 -1 -3 -2 -1 1 3 4 3 2 2 4 5 4 2 2 5 4 4 6 5 1 3 10 8 5 11 17 16 21 23 15 10 13 12 8 6 2
36 36 43 51 44 31 29 31 32 31 30 27 26 24 21 20 18 16 16 16 15 14 13 11 11 11 10 9 8 9 9 9 7 5 6 6 6 7 7 7 7 7 6 6 5 4 5 7 8 8 6 2 -1 -1 5 11 5 -1 1 2 1 4 6 5 4 2 4 5 2 1 2 1 2 5 8 6 6 10 14 15 16 14 9 11 10 4 4 3
35 36 40 49 51 45 40 36 37 38 35 31 29 26 22 20 19 18 18 17 16 14 13 15 15 13 12 10 8 9 9 8 9 8 6 6 7 7 7 7 6 6 8 7 5 5 4 3 6 10 9 7 5 -0 3 11 8 1 3 4 3 5 7 6 3 0 2 3 2 3 3 1 3 4 7 10 4 3 9 10 14 21 17 11 6 2 2 2
30 34 38 43 45 45 43 42 40 39 37 34 28 25 23 21 19 20 19 17 17 18 16 15 15 14 12 11 9 9 9 8 8 11 9 6 6 6 7 7 7 7 8 8 7 5 4 3 3 4 5 7 8 2 -3 -0 3 6 10 8 5 7 8 4 -2 0 6 3 -0 8 9 3 4 5 7 13 9 5 7 9 19 28 18 6 4 3 3 3
23 29 34 37 39 36 33 39 43 38 35 35 32 28 27 23 19 19 21 20 17 18 20 18 17 17 14 14 13 10 10 9 9 12 12 9 7 7 8 9 7 7 9 9 8 6 5 4 2 0 2 5 8 10 6 3 4 5 9 11 10 7 6 4 4 4 5 0 -1 7 10 7 8 8 9 13 12 11 11 9 17 25 15 3 -0 -1 3 8
19 26 29 31 37 33 24 26 35 36 34 35 33 29 29 30 26 19 20 25 23 20 21 19 20 23 19 14 15 13 10 11 11 11 12 13 10 7 9 11 8 9 12 12 9 7 6 6 4 1 1 4 7 8 7 10 12 6 2 8 12 10 6 5 8 8 5 4 6 7 6 7 8 5 7 11 10 11 12 8 11 17 13 6 2 -0 -1 -1
19 25 26 26 28 27 23 21 22 25 29 32 33 31 29 32 40 36 25 22 22 24 28 24 18 23 25 18 15 15 13 12 12 10 12 17 16 9 5 7 9 12 14 12 9 8 8 8 7 5 4 4 7 10 9 8 12 12 6 2 3 6 7 5 5 6 5 6 8 8 7 9 9 6 6 9 9 8 8 8 12 18 16 9 3 3 2 -2
19 20 21 24 22 17 17 20 20 19 20 23 26 28 24 17 25 38 37 28 21 18 29 34 22 19 25 24 20 18 15 16 15 10 9 17 19 12 3 4 12 14 13 12 9 8 9 10 9 10 9 5 6 12 9 4 12 14 -1 -12 -10 -3 1 3 5 4 3 5 5 3 3 6 8 8 9 12 13 10 8 8 11 17 19 15 8 3 4 6
17 15 15 21 24 16 10 12 19 20 18 19 19 21 23 16 11 20 30 35 33 23 24 35 32 23 22 22 25 26 20 18 18 13 10 13 20 19 6 -0 8 14 11 10 10 9 10 11 11 10 8 6 9 11 8 8 9 -0 -12 -9 -0 3 3 3 4 4 3 4 2 -2 0 7 9 5 5 11 13 9 9 9 10 13 16 16 14 6 -1 -1
Height
5893 5892 5891 5890 5890 5889 5888 5888 5887 5887 5886 5885 5885 5884 5884 5883 5883 5882 5882 5881 5881 5881 5880 5880 5879 5879 5879 5879 5879 5880 5881 5881 5882 5882 5882 5882 5883 5883 5884 5884 5885 5886 5887 5888 5889 5890 5890 5891 5891 5892 5893 5894 5894 5895 5896 5896 5895 5895 5895 5896 5896 5896 5896 5896 5896 5896 5896 5896 5898 5898 5898 5898 5899 5899 5898 5898 5898 5898 5898 5899 5899 5899 5899 5900 5900 5900 5900 5900
5892 5891 5890 5890 5889 5888 5888 5887 5886 5886 5885 5884 5884 5884 5883 5883 5882 5882 5881 5881 5880 5880 5879 5879 5879 5878 5878 5878 5878 5879 5879 5880 5880 5881 5881 5882 5882 5882 5882 5883 5884 5885 5886 5887 5888 5889 5889 5889 5890 5891 5892 5893 5894 5894 5895 5895 5895 5895 5895 5896 5896 5896 5896 5896 5896 5896 5897 5898 5899 5899 5899 5899 5899 5899 5899 5898 5898 5898 5898 5899 5899 5899 5899 5899 5899 5900 5900 5900
5890 5890 5889 5889 5888 5887 5887 5886 5885 5885 5884 5883 5883 5883 5882 5882 5882 5881 5881 5880 5880 5879 5879 5878 5878 5877 5877 5876 5877 5877 5878 5878 5878 5879 5881 5881 5880 5881 5881 5882 5883 5884 5885 5885 5886 5887 5887 5887 5888 5889 5890 5892 5893 5894 5894 5895 5895 5895 5895 5896 5897 5897 5897 5896 5896 5896 5897 5898 5899 5900 5900 5900 5900 5900 5900 5899 5898 5898 5899 5899 5899 5899 5899 5899 5899 5899 5899 5899
5889 5888 5888 5887 5887 5886 5886 5885 5884 5884 5883 5883 5882 5882 5881 5881 5881 5880 5880 5880 5879 5879 5878 5878 5877 5877 5876 5875 5875 5875 5876 5876 5877 5878 5879 5879 5879 5879 5880 5881 5882 5882 5883 5883 5884 5884 5884 5886 5888 5889 5890 5891 5892 5893 5894 5894 5895 5895 5895 5896 5896 5897 5897 5896 5896 5896 5897 5898 5899 5900 5901 5901 5901 5901 5900 5899 5899 5899 5899 5899 5899 5898 5898 5899 5898 5899 5899 5899
5888 5887 5887 5886 5885 5885 5884 5884 5883 5883 5882 5882 5881 5881 5880 5880 5880 5879 5879 5879 5878 5878 5877 5877 5876 5876 5875 5875 5874 5874 5875 5875 5876 5876 5877 5878 5878 5878 5879 5880 5881 5881 5882 5882 5883 5883 5884 5886 5888 5889 5890 5891 5892 5893 5894 5894 5895 5895 5895 5896 5896 5897 5896 5896 5896 5895 5895 5896 5897 5898 5900 5901 5902 5902 5901 5900 5899 5899 5898 5899 5899 5899 5898 5898 5898 5898 5899 5899
5887 5886 5885 5885 5884 5884 5883 5883 5882 5882 5881 5881 5880 5880 5879 5879 5878 5878 5878 5878 5878 5877 5877 5876 5876 5875 5875 5874 5873 5873 5873 5874 5874 5874 5875 5876 5877 5877 5878 5878 5879 5880 5881 5881 5882 5882 5884 5886 5887 5889 5890 5891 5892 5892 5892 5893 5894 5894 5895 5896 5896 5896 5895 5895 5895 5895 5894 5894 5895 5897 5898 5900 5902 5903 5902 5901 5900 5899 5899 5899 5899 5899 5898 5898 5898 5898 5898 5898
5885 5884 5884 5883 5883 5882 5882 5881 5881 5880 5880 5879 5879 5878 5878 5878 5877 5877 5877 5877 5876 5876 5876 5875 5875 5874 5874 5873 5873 5872 5872 5873 5873 5873 5874 5875 5876 5876 5877 5877 5878 5879 5880 5881 5881 5882 5883 5885 5887 5888 5889 5890 5891 5891 5891 5892 5892 5893 5894 5895 5895 5895 5895 5894 5894 5895 5894 5893 5894 5895 5897 5899 5901 5903 5903 5902 5901 5900 5900 5900 5900 5899 5899 5898 5898 5898 5898 5898
5883 5883 5882 5882 5881 5881 5880 5880 5879 5879 5878 5878 5877 5877 5877 5876 5876 5876 5876 5876 5875 5875 5875 5874 5874 5874 5873 5873 5872 5872 5871 5872 5872 5872 5872 5873 5874 5875 5876 5876 5877 5878 5879 5880 5880 5881 5882 5884 5886 5887 5888 5890 5890 5889 5890 5891 5891 5892 5893 5894 5894 5894 5894 5894 5893 5894 5894 5893 5893 5894 5896 5898 5900 5903 5904 5902 5902 5901 5901 5901 5900 5899 5899 5898 5898 5898 5898 5897
5881 5881 5880 5880 5880 5879 5879 5878 5878 5877 5877 5876 5876 5875 5875 5875 5875 5875 5875 5874 5874 5874 5873 5873 5873 5872 5872 5872 5871 5871 5870 5870 5871 5871 5871 5871 5872 5873 5875 5875 5876 5877 5877 5878 5879 5879 5881 5883 5884 5886 5887 5888 5887 5888 5888 5889 5891 5891 5891 5892 5892 5893 5892 5893 5892 5892 5893 5892 5892 5892 5894 5897 5900 5902 5903 5903 5902 5902 5901 5901 5901 5900 5899 5898 5898 5897 5897 5897
5879 5878 5878 5878 5877 5877 5877 5876 5876 5875 5875 5874 5874 5874 5873 5873 5873 5873 5873 5873 5873 5873 5872 5872 5872 5871 5871 5871 5870 5870 5870 5869 5869 5870 5870 5870 5870 5871 5873 5874 5875 5876 5876 5877 5878 5879 5881 5882 5882 5883 5883 5884 5885 5886 5887 5889 5889 5889 5889 5890 5891 5892 5892 5893 5892 5891 5891 5892 5891 5892 5894 5896 5899 5901 5902 5903 5902 5902 5902 5901 5901 5900 5899 5898 5897 5897 5897 5897
5877 5876 5875 5875 5875 5875 5874 5874 5874 5873 5873 5872 5872 5871 5871 5871 5872 5871 5871 5871 5872 5871 5871 5871 5870 5870 5870 5869 5869 5869 5869 5869 5868 5868 5869 5869 5869 5869 5871 5872 5873 5874 5875 5876 5877 5878 5879 5879 5879 5878 5879 5881 5883 5885 5886 5888 5887 5886 5887 5888 5891 5892 5893 5893 5892 5891 5890 5891 5891 5893 5894 5895 5897 5899 5901 5902 5902 5902 5901 5900 5900 5900 5899 5898 5897 5896 5896 5896
5874 5874 5873 5873 5872 5872 5872 5872 5871 5871 5870 5870 5869 5869 5869 5870 5870 5869 5869 5869 5870 5870 5870 5870 5869 5869 5868 5868 5868 5868 5868 5868 5867 5867 5867 5867 5868 5868 5869 5870 5871 5872 5873 5874 5875 5876 5877 5877 5876 5876 5879 5881 5882 5883 5885 5885 5884 5885 5887 5888 5891 5892 5893 5894 5892 5891 5891 5891 5891 5892 5893 5893 5895 5897 5900 5901 5901 5901 5901 5900 5900 5900 5899 5898 5897 5896 5896 5896
5872 5871 5871 5870 5870 5870 5869 5869 5869 5868 5867 5867 5867 5867 5867 5868 5868 5867 5867 5867 5868 5868 5868 5868 5868 5867 5867 5866 5867 5867 5867 5867 5866 5865 5866 5866 5866 5867 5867 5868 5869 5870 5872 5873 5873 5874 5874 5874 5874 5877 5879 5878 5880 5881 5882 5883 5883 5885 5886 5888 5890 5892 5894 5894 5892 5890 5891 5891 5891 5891 5892 5893 5894 5896 5899 5900 5901 5901 5901 5900 5899 5899 5899 5899 5897 5896 5896 5896
5870 5869 5868 5868 5867 5867 5867 5867 5866 5865 5864 5864 5864 5865 5865 5866 5866 5865 5865 5865 5865 5866 5866 5866 5866 5866 5865 5865 5866 5866 5865 5865 5864 5864 5865 5865 5865 5865 5865 5866 5866 5868 5869 5870 5871 5871 5872 5872 5873 5875 5876 5876 5879 5879 5880 5881 5882 5883 5884 5886 5889 5891 5893 5893 5890 5889 5890 5891 5890 5890 5891 5892 5894 5895 5897 5899 5900 5900 5901 5901 5900 5899 5899 5899 5897 5896 5896 5895
5868 5867 5866 5865 5865 5864 5864 5864 5864 5863 5862 5862 5862 5862 5863 5863 5863 5862 5862 5863 5863 5864 5864 5864 5864 5864 5863 5863 5865 5864 5863 5863 5863 5863 5864 5864 5864 5864 5864 5864 5864 5865 5866 5867 5868 5869 5869 5870 5871 5873 5874 5876 5876 5876 5877 5878 5879 5881 5882 5884 5887 5889 5891 5891 5889 5889 5889 5889 5889 5890 5891 5892 5893 5895 5896 5898 5899 5900 5900 5901 5900 5899 5898 5898 5898 5897 5896 5896
5865 5865 5864 5863 5863 5862 5862 5862 5861 5860 5859 5860 5860 5859 5860 5861 5860 5860 5860 5860 5861 5861 5862 5862 5862 5862 5860 5861 5863 5862 5861 5861 5862 5862 5862 5862 5863 5862 5863 5863 5863 5863 5863 5864 5865 5866 5866 5868 5869 5871 5872 5873 5873 5874 5876 5876 5877 5879 5880 5883 5886 5888 5889 5888 5888 5888 5887 5888 5888 5889 5891 5892 5893 5894 5895 5897 5898 5899 5900 5901 5901 5899 5898 5898 5898 5897 5897 5896
5863 5862 5861 5861 5860 5859 5859 5859 5859 5857 5856 5857 5857 5856 5857 5858 5857 5857 5857 5857 5858 5859 5859 5860 5860 5860 5858 5858 5859 5860 5860 5860 5861 5861 5860 5860 5861 5861 5861 5862 5861 5861 5861 5861 5862 5863 5864 5865 5867 5868 5869 5870 5871 5872 5873 5873 5876 5877 5879 5882 5884 5886 5887 5886 5887 5887 5886 5886 5887 5888 5890 5892 5893 5893 5894 5896 5897 5899 5900 5900 5901 5899 5898 5897 5898 5898 5897 5896
5859 5859 5858 5857 5857 5856 5856 5856 5856 5855 5853 5854 5854 5854 5854 5854 5854 5853 5854 5855 5855 5855 5856 5857 5857 5857 5856 5855 5856 5857 5858 5859 5859 5859 5858 5857 5858 5859 5860 5860 5859 5859 5859 5859 5860 5861 5862 5864 5865 5866 5867 5867 5869 5869 5871 5873 5876 5877 5878 5880 5882 5883 5884 5885 5886 5886 5885 5886 5886 5887 5889 5891 5892 5892 5894 5895 5897 5898 5899 5900 5900 5899 5898 5897 5897 5898 5897 5896
5856 5855 5854 5853 5853 5853 5852 5853 5853 5851 5850 5851 5851 5851 5850 5851 5851 5851 5851 5852 5852 5852 5853 5854 5855 5855 5854 5853 5852 5853 5856 5857 5856 5857 5857 5856 5855 5857 5858 5858 5858 5858 5858 5858 5859 5860 5860 5861 5862 5863 5864 5866 5868 5869 5871 5874 5875 5876 5877 5877 5879 5880 5881 5883 5884 5884 5884 5884 5885 5886 5887 5889 5890 5891 5892 5894 5895 5897 5898 5899 5899 5899 5898 5897 5897 5898 5898 5896
5851 5851 5850 5849 5848 5848 5848 5849 5848 5848 5847 5847 5847 5847 5847 5847 5847 5847 5849 5849 5848 5849 5850 5851 5852 5852 5851 5850 5849 5850 5852 5853 5854 5855 5855 5855 5854 5855 5855 5856 5856 5857 5857 5858 5858 5858 5858 5858 5860 5861 5863 5865 5867 5868 5870 5872 5873 5874 5874 5875 5876 5878 5879 5881 5882 5882 5882 5882 5883 5884 5885 5886 5888 5889 5891 5892 5894 5895 5897 5898 5899 5899 5898 5897 5896 5897 5898 5897
5847 5846 5846 5845 5844 5843 5843 5844 5844 5844 5844 5843 5843 5843 5843 5843 5842 5843 5846 5846 5845 5845 5847 5848 5848 5850 5849 5846 5846 5847 5848 5850 5852 5852 5852 5853 5853 5853 5853 5854 5855 5856 5857 5856 5855 5855 5855 5857 5859 5860 5862 5863 5864 5866 5867 5869 5870 5871 5872 5873 5874 5875 5878 5880 5880 5880 5881 5881 5882 5883 5883 5883 5885 5887 5889 5890 5892 5894 5896 5897 5898 5898 5897 5897 5896 5896 5897 5897
5842 5842 5841 5840 5839 5838 5838 5839 5839 5839 5839 5839 5839 5838 5838 5838 5838 5839 5841 5843 5842 5840 5843 5845 5844 5847 5845 5841 5842 5844 5847 5849 5849 5848 5849 5850 5851 5852 5852 5852 5853 5854 5854 5853 5853 5853 5855 5857 5858 5858 5859 5860 5861 5862 5864 5866 5867 5867 5869 5870 5872 5874 5876 5877 5878 5880 5880 5880 5881 5881 5881 5881 5882 5884 5886 5887 5890 5892 5894 5895 5896 5897 5897 5896 5896 5895 5896 5897
5836 5836 5836 5836 5835 5833 5833 5834 5834 5834 5834 5834 5835 5834 5833 5833 5834 5834 5836 5840 5840 5837 5837 5840 5841 5844 5843 5838 5837 5839 5844 5847 5845 5845 5846 5847 5849 5849 5849 5850 5851 5851 5850 5851 5852 5853 5855 5856 5856 5855 5856 5857 5858 5860 5861 5862 5863 5864 5866 5867 5870 5873 5874 5875 5877 5878 5878 5878 5879 5879 5879 5878 5878 5879 5881 5884 5887 5890 5892 5893 5895 5896 5897 5896 5895 5895 5895 5897
5830 5831 5831 5830 5830 5828 5827 5828 5828 5829 5829 5829 5829 5829 5829 5828 5829 5830 5830 5834 5838 5836 5832 5833 5837 5840 5839 5834 5832 5836 5842 5843 5842 5842 5842 5844 5846 5845 5846 5848 5848 5847 5848 5850 5851 5851 5853 5854 5853 5852 5853 5854 5855 5856 5857 5859 5861 5862 5864 5866 5869 5872 5872 5874 5876 5876 5876 5876 5877 5877 5876 5875 5874 5874 5877 5881 5884 5887 5889 5891 5893 5895 5896 5896 5896 5895 5894 5895
5824 5824 5824 5825 5825 5824 5822 5822 5823 5823 5824 5824 5824 5824 5824 5824 5823 5825 5826 5826 5832 5835 5830 5828 5831 5834 5835 5832 5831 5834 5837 5839 5840 5839 5839 5841 5841 5841 5843 5844 5844 5845 5847 5847 5848 5849 5851 5851 5850 5850 5850 5851 5852 5853 5855 5856 5859 5861 5862 5865 5869 5870 5871 5872 5873 5873 5873 5874 5876 5875 5873 5872 5872 5872 5875 5878 5881 5883 5886 5888 5891 5893 5894 5895 5895 5895 5894 5894
5817 5817 5817 5818 5818 5819 5817 5816 5817 5818 5818 5818 5819 5819 5818 5819 5818 5819 5821 5820 5824 5830 5828 5824 5825 5828 5830 5830 5830 5829 5831 5836 5836 5832 5835 5837 5837 5837 5839 5839 5841 5843 5844 5844 5845 5847 5848 5848 5848 5848 5848 5849 5850 5851 5853 5854 5856 5859 5862 5865 5866 5867 5868 5870 5871 5871 5870 5872 5874 5872 5870 5869 5869 5870 5873 5876 5877 5880 5883 5886 5889 5891 5893 5893 5894 5894 5894 5893
5809 5810 5810 5810 5811 5813 5811 5810 5811 5812 5812 5812 5813 5813 5813 5813 5812 5813 5815 5814 5817 5824 5823 5821 5821 5823 5825 5825 5826 5825 5828 5833 5830 5828 5833 5834 5833 5834 5834 5836 5838 5840 5841 5841 5842 5845 5845 5845 5846 5846 5846 5847 5849 5851 5852 5852 5854 5858 5861 5862 5862 5864 5866 5868 5869 5867 5867 5870 5869 5868 5867 5867 5866 5867 5871 5873 5874 5877 5880 5883 5887 5889 5891 5892 5892 5893 5893 5893
5801 5802 5802 5802 5803 5805 5805 5805 5805 5805 5805 5806 5806 5807 5807 5807 5807 5808 5809 5807 5810 5816 5818 5817 5816 5818 5819 5820 5821 5822 5824 5827 5824 5825 5828 5828 5828 5830 5831 5833 5835 5836 5837 5837 5840 5843 5842 5841 5843 5843 5844 5845 5848 5850 5850 5850 5853 5857 5858 5858 5860 5862 5863 5865 5865 5863 5866 5866 5863 5864 5865 5863 5863 5865 5868 5869 5869 5872 5877 5881 5885 5887 5889 5890 5891 5892 5893 5893
5792 5793 5794 5794 5794 5796 5797 5798 5800 5799 5798 5798 5799 5800 5801 5801 5801 5802 5802 5801 5804 5809 5812 5812 5812 5812 5813 5815 5816 5817 5819 5821 5820 5820 5821 5822 5825 5827 5828 5830 5830 5831 5832 5833 5837 5839 5837 5838 5839 5840 5841 5844 5846 5848 5847 5848 5852 5856 5855 5855 5858 5859 5860 5862 5860 5860 5863 5858 5855 5862 5863 5860 5860 5864 5865 5864 5866 5870 5875 5879 5882 5884 5887 5888 5889 5891 5892 5893
5783 5783 5784 5786 5785 5787 5788 5790 5794 5794 5790 5790 5791 5792 5793 5794 5795 5795 5794 5796 5800 5803 5806 5807 5806 5805 5807 5809 5811 5812 5813 5815 5815 5815 5816 5819 5821 5822 5824 5825 5824 5826 5828 5829 5833 5835 5834 5835 5836 5838 5840 5842 5843 5844 5844 5846 5850 5852 5850 5851 5853 5854 5857 5858 5856 5859 5857 5849 5850 5859 5861 5858 5857 5860 5862 5862 5865 5870 5873 5876 5878 5881 5884 5886 5887 5889 5891 5893
5775 5774 5774 5776 5776 5779 5780 5780 5784 5786 5784 5782 5783 5784 5785 5786 5787 5787 5788 5792 5795 5796 5798 5800 5799 5799 5801 5803 5806 5807 5808 5808 5809 5809 5811 5815 5816 5817 5819 5820 5820 5822 5823 5827 5831 5831 5830 5831 5834 5836 5838 5839 5840 5841 5841 5843 5846 5846 5845 5848 5849 5850 5852 5851 5852 5854 5848 5842 5849 5857 5860 5856 5852 5856 5861 5861 5865 5868 5870 5873 5876 5878 5881 5883 5885 5887 5889 5891
5767 5765 5765 5765 5766 5770 5771 5771 5772 5775 5776 5776 5775 5775 5777 5777 5778 5780 5784 5787 5789 5789 5790 5791 5793 5795 5795 5798 5800 5803 5804 5804 5804 5805 5807 5810 5811 5813 5816 5817 5818 5818 5820 5826 5829 5827 5827 5830 5832 5833 5835 5836 5836 5837 5839 5840 5842 5842 5842 5844 5844 5846 5846 5844 5845 5845 5841 5841 5848 5855 5857 5851 5846 5854 5861 5861 5863 5866 5868 5871 5873 5875 5878 5880 5883 5885 5887 5889
5759 5758 5757 5755 5756 5759 5761 5763 5762 5762 5765 5767 5767 5767 5767 5768 5771 5775 5778 5780 5780 5782 5783 5783 5787 5789 5790 5792 5795 5797 5799 5800 5800 5800 5802 5805 5806 5808 5811 5812 5812 5813 5817 5822 5822 5822 5823 5826 5827 5829 5832 5832 5833 5835 5837 5838 5840 5839 5840 5840 5840 5842 5841 5839 5841 5842 5841 5843 5847 5852 5852 5845 5843 5852 5858 5860 5862 5864 5866 5868 5870 5872 5875 5878 5880 5882 5884 5886
5750 5749 5748 5746 5746 5748 5749 5752 5753 5753 5753 5755 5758 5758 5757 5759 5764 5768 5770 5771 5773 5775 5775 5776 5780 5782 5784 5787 5788 5790 5792 5794 5796 5796 5796 5798 5800 5802 5805 5807 5807 5809 5813 5815 5816 5818 5819 5821 5824 5827 5829 5830 5831 5834 5836 5837 5837 5837 5839 5838 5837 5838 5838 5839 5842 5841 5842 5844 5845 5848 5845 5840 5842 5850 5856 5859 5861 5862 5864 5866 5868 5870 5872 5875 5877 5879 5881 5883
5740 5739 5737 5736 5737 5738 5738 5740 5743 5743 5743 5744 5746 5747 5749 5753 5757 5758 5760 5763 5765 5767 5768 5770 5772 5774 5777 5780 5781 5782 5785 5788 5789 5789 5790 5791 5793 5797 5801 5803 5804 5805 5808 5810 5813 5815 5815 5818 5823 5824 5824 5826 5827 5831 5832 5831 5832 5834 5834 5832 5832 5837 5839 5840 5841 5840 5842 5842 5840 5842 5840 5838 5843 5848 5853 5857 5858 5860 5862 5864 5866 5868 5870 5872 5874 5876 5878 5880
5728 5727 5725 5726 5727 5728 5728 5729 5731 5732 5733 5733 5733 5736 5742 5746 5746 5747 5750 5753 5755 5758 5761 5762 5763 5765 5768 5771 5773 5775 5779 5781 5781 5781 5783 5785 5787 5791 5795 5797 5799 5801 5803 5806 5809 5811 5811 5816 5821 5818 5818 5822 5824 5826 5826 5825 5828 5829 5828 5828 5833 5839 5838 5836 5837 5839 5839 5836 5836 5838 5838 5839 5842 5844 5848 5853 5854 5857 5860 5861 5864 5865 5867 5869 5870 5872 5874 5876
5716 5715 5713 5713 5716 5717 5717 5718 5719 5720 5722 5722 5723 5728 5733 5734 5736 5738 5739 5742 5745 5749 5752 5753 5755 5756 5757 5760 5764 5768 5771 5772 5773 5774 5777 5779 5779 5782 5786 5790 5794 5795 5797 5800 5803 5805 5806 5811 5814 5812 5814 5819 5821 5820 5820 5820 5823 5824 5824 5830 5834 5834 5832 5830 5831 5834 5833 5830 5832 5835 5836 5837 5839 5839 5844 5849 5851 5855 5857 5859 5862 5863 5865 5866 5868 5870 5871 5874
5703 5701 5699 5700 5704 5706 5705 5706 5707 5708 5709 5711 5715 5719 5721 5722 5726 5727 5728 5731 5734 5737 5740 5743 5746 5747 5748 5751 5755 5759 5762 5763 5765 5768 5770 5771 5771 5773 5778 5782 5785 5788 5792 5794 5796 5798 5800 5803 5807 5808 5809 5814 5814 5812 5811 5814 5817 5820 5824 5828 5827 5825 5825 5826 5825 5826 5828 5826 5828 5832 5833 5834 5835 5837 5842 5846 5848 5852 5855 5857 5859 5861 5862 5864 5866 5868 5869 5871
5688 5687 5683 5687 5693 5693 5691 5692 5694 5694 5695 5700 5704 5707 5709 5711 5714 5716 5716 5720 5723 5725 5728 5732 5735 5737 5739 5742 5745 5749 5753 5755 5758 5760 5762 5763 5763 5766 5770 5773 5777 5781 5783 5785 5787 5791 5794 5795 5800 5804 5805 5807 5806 5802 5803 5809 5815 5818 5819 5820 5820 5820 5822 5823 5822 5823 5825 5825 5826 5829 5830 5831 5834 5837 5840 5843 5846 5849 5852 5854 5856 5859 5860 5862 5864 5865 5867 5868
5672 5670 5667 5672 5679 5678 5676 5677 5679 5681 5683 5687 5691 5694 5697 5699 5701 5704 5705 5707 5710 5713 5715 5719 5723 5727 5730 5733 5736 5739 5743 5746 5749 5752 5754 5755 5755 5758 5763 5767 5771 5773 5775 5776 5779 5783 5786 5785 5790 5798 5799 5799 5796 5795 5800 5808 5812 5812 5812 5814 5816 5817 5818 5819 5819 5820 5822 5822 5823 5825 5825 5828 5834 5837 5839 5841 5843 5846 5849 5851 5854 5856 5858 5859 5861 5863 5865 5866
5655 5653 5650 5657 5663 5661 5660 5662 5663 5666 5669 5673 5676 5678 5682 5685 5688 5692 5693 5694 5697 5701 5703 5706 5711 5716 5721 5724 5726 5729 5732 5735 5739 5742 5745 5748 5747 5750 5756 5760 5762 5766 5769 5771 5771 5773 5775 5775 5781 5790 5792 5789 5790 5795 5800 5805 5807 5808 5808 5810 5813 5815 5815 5815 5814 5817 5819 5819 5820 5821 5820 5826 5834 5836 5837 5839 5841 5843 5846 5848 5850 5852 5854 5857 5859 5861 5863 5864
5637 5634 5632 5640 5645 5643 5644 5644 5646 5652 5655 5657 5661 5664 5668 5672 5675 5678 5679 5681 5685 5689 5692 5694 5698 5704 5708 5712 5717 5719 5720 5724 5729 5732 5735 5738 5738 5742 5749 5751 5753 5758 5761 5763 5764 5765 5768 5770 5774 5781 5784 5785 5789 5795 5797 5799 5801 5801 5801 5805 5809 5810 5810 5810 5812 5817 5819 5817 5818 5818 5816 5821 5831 5834 5835 5837 5838 5839 5842 5844 5846 5849 5851 5854 5856 5858 5860 5861
5620 5617 5616 5621 5625 5626 5627 5627 5630 5637 5639 5641 5646 5650 5653 5657 5660 5663 5666 5669 5673 5676 5678 5681 5686 5690 5694 5700 5705 5709 5711 5714 5718 5721 5725 5728 5730 5735 5740 5743 5745 5750 5753 5755 5757 5760 5764 5766 5766 5771 5778 5781 5784 5788 5789 5791 5793 5792 5792 5797 5801 5803 5807 5810 5813 5816 5815 5813 5815 5815 5811 5815 5826 5832 5833 5835 5836 5837 5838 5840 5843 5845 5848 5850 5853 5855 5857 5858
5604 5603 5601 5602 5605 5609 5611 5611 5615 5620 5622 5627 5632 5634 5637 5641 5644 5648 5651 5656 5660 5662 5665 5669 5673 5676 5681 5687 5692 5698 5702 5704 5707 5710 5714 5717 5722 5727 5731 5734 5738 5742 5745 5747 5750 5754 5758 5758 5757 5763 5770 5773 5775 5777 5777 5780 5782 5783 5786 5791 5795 5800 5805 5807 5808 5809 5807 5807 5811 5810 5807 5811 5820 5827 5830 5831 5833 5834 5835 5837 5839 5842 5845 5847 5849 5852 5853 5855
5590 5591 5589 5587 5587 5592 5595 5596 5600 5603 5606 5611 5616 5618 5621 5626 5629 5633 5638 5642 5645 5647 5652 5657 5661 5664 5668 5672 5678 5685 5691 5694 5697 5700 5703 5707 5712 5717 5722 5726 5729 5733 5736 5738 5741 5746 5749 5750 5751 5757 5762 5764 5766 5768 5770 5775 5777 5779 5783 5787 5791 5796 5799 5800 5803 5801 5799 5803 5807 5806 5806 5809 5815 5822 5828 5828 5830 5832 5833 5834 5835 5838 5841 5843 5846 5848 5849 5850
5579 5579 5579 5576 5574 5576 5579 5582 5586 5589 5591 5596 5600 5602 5605 5610 5614 5619 5623 5627 5629 5634 5640 5645 5647 5649 5652 5658 5666 5673 5679 5683 5686 5689 5692 5697 5702 5706 5711 5716 5719 5724 5727 5729 5733 5737 5740 5742 5746 5749 5753 5758 5761 5764 5769 5774 5775 5777 5780 5784 5787 5792 5794 5796 5796 5794 5795 5801 5803 5803 5807 5809 5811 5818 5825 5826 5827 5829 5830 5831 5832 5834 5837 5840 5841 5843 5845 5846
5573 5571 5570 5569 5567 5565 5566 5570 5574 5576 5577 5581 5584 5586 5590 5595 5599 5604 5609 5612 5615 5621 5627 5630 5632 5635 5640 5647 5654 5661 5665 5670 5675 5680 5683 5687 5692 5696 5701 5706 5710 5714 5718 5721 5725 5729 5732 5735 5738 5740 5744 5750 5755 5759 5765 5767 5768 5772 5776 5779 5783 5787 5790 5790 5787 5789 5795 5797 5796 5802 5808 5807 5807 5813 5820 5823 5825 5826 5828 5829 5830 5831 5833 5836 5838 5840 5842 5843
5569 5566 5563 5562 5562 5560 5558 5560 5563 5565 5566 5569 5572 5574 5577 5581 5585 5590 5594 5598 5602 5608 5612 5614 5618 5623 5629 5635 5640 5647 5652 5657 5664 5669 5673 5678 5683 5687 5691 5695 5700 5705 5709 5713 5716 5720 5724 5728 5730 5731 5736 5743 5748 5753 5758 5760 5761 5766 5770 5774 5778 5782 5784 5784 5783 5787 5792 5790 5793 5803 5806 5803 5806 5810 5814 5818 5821 5823 5825 5826 5827 5829 5831 5833 5835 5837 5839 5840
5566 5563 5559 5558 5558 5557 5555 5555 5556 5558 5559 5560 5563 5565 5567 5571 5574 5578 5582 5586 5591 5595 5596 5600 5605 5611 5616 5622 5626 5633 5639 5645 5651 5656 5662 5669 5674 5678 5683 5686 5690 5696 5701 5704 5707 5711 5715 5720 5722 5724 5728 5735 5740 5745 5751 5755 5756 5758 5762 5767 5772 5775 5778 5781 5782 5785 5787 5787 5793 5800 5800 5799 5804 5807 5809 5813 5816 5819 5821 5822 5823 5825 5827 5829 5831 5833 5835 5836
5563 5561 5558 5556 5555 5554 5553 5553 5553 5554 5554 5554 5557 5559 5561 5565 5567 5569 5573 5577 5581 5583 5584 5587 5593 5598 5604 5608 5613 5620 5626 5631 5637 5645 5653 5659 5665 5670 5674 5677 5682 5688 5693 5696 5698 5702 5707 5711 5714 5717 5720 5727 5733 5737 5743 5748 5750 5751 5754 5759 5764 5769 5772 5775 5777 5779 5781 5783 5789 5793 5792 5795 5801 5804 5806 5808 5810 5813 5816 5818 5819 5821 5822 5824 5826 5828 5831 5832
5561 5559 5557 5555 5554 5553 5552 5552 5552 5552 5552 5552 5553 5554 5556 5559 5560 5562 5566 5569 5573 5575 5575 5576 5582 5587 5592 5596 5601 5608 5612 5615 5624 5634 5641 5646 5654 5661 5664 5668 5674 5679 5684 5688 5691 5694 5698 5702 5706 5710 5712 5719 5727 5729 5732 5739 5743 5744 5746 5751 5756 5760 5764 5768 5771 5773 5775 5779 5784 5786 5785 5791 5799 5801 5802 5804 5806 5808 5811 5813 5816 5817 5819 5820 5822 5824 5827 5828
5559 5557 5555 5554 5553 5552 5551 5551 5551 5551 5550 5550 5551 5552 5553 5555 5556 5558 5562 5564 5567 5569 5569 5571 5575 5578 5583 5588 5591 5595 5599 5604 5613 5621 5626 5632 5641 5649 5654 5660 5664 5669 5675 5680 5683 5687 5690 5693 5699 5702 5703 5712 5720 5720 5723 5730 5733 5735 5741 5747 5750 5753 5758 5763 5766 5769 5771 5774 5777 5778 5781 5791 5798 5798 5797 5800 5802 5803 5806 5809 5812 5813 5815 5816 5817 5820 5823 5824